Regional Weather Roundup
Issued by NWS

Home | Current Version | Previous Version | Text Only | Print | Product List | Glossary Off
Versions: 1 2 3 4 5 6 7 8 9 10 11 12 13 14 15 16 17 18 19 20 21 22 23 24 25 26 27 28 29 30 31 32 33 34 35 36 37 38 39 40 41 42 43 44 45 46 47 48 49 50

000
ASUS43 KMKX 031900
RWRWI

WISCONSIN REGIONAL WEATHER ROUNDUP
NATIONAL WEATHER SERVICE MILWAUKEE/SULLIVAN WI
200 PM CDT SUN MAY 03 2015

NOTE: "FAIR" INDICATES FEW OR NO CLOUDS BELOW 12,000 FEET WITH NO
SIGNIFICANT WEATHER AND/OR OBSTRUCTIONS TO VISIBILITY.

WIZ001-002-006>008-014>016-023>028-032000-
NORTHWEST WISCONSIN

CITY           SKY/WX    TMP DP  RH WIND       PRES   REMARKS
SUPERIOR ARPT  CLOUDY    77  48  35 NW13      29.76R
ASHLAND        PTSUNNY   78  50  37 W9        29.76S
HAYWARD        CLOUDY    74  49  41 SW3       29.79F
SIREN          CLOUDY    74  51  45 SW9       29.81R
CUMBERLAND     PTSUNNY   73  46  38 S6        29.81S
RICE LAKE      PTSUNNY   76  49  39 W5        29.82S
CHETEK         PTSUNNY   76  56  50 SE3       29.80S
LADYSMITH      MOSUNNY   74  55  51 S8        29.83S
EAU CLAIRE     NOT AVBL
MENOMONIE      MOSUNNY   75  53  46 S8        29.80S
NEW RICHMOND   MOSUNNY   76  53  43 W8        29.80S
OSCEOLA        MOSUNNY   76  55  47 CALM      29.82F
$$

WIZ003>005-009-010-017-018-032000-
NORTH CENTRAL WISCONSIN

CITY           SKY/WX    TMP DP  RH WIND       PRES   REMARKS
MANITOWISH WTR MOSUNNY   75  51  42 SW10G16   29.79F
ARBOR VITAE    PTSUNNY   77  50  38 SW13      29.80S
WOODRUFF       PTSUNNY   77  50  38 SW13      29.80S
RHINELANDER    SUNNY     76  52  43 SW12      29.82S
EAGLE RIVER    MOSUNNY   76  45  32 W12G17    29.80S
LAND O LAKES   PTSUNNY   77  44  31 SW8G16    29.81S
PHILLIPS       CLOUDY    74  54  48 SW10      29.80S
TOMAHAWK       MOSUNNY   76  52  42 CALM      29.81F
MEDFORD        MOSUNNY   74  52  46 S14       29.82F
MERRILL        MOSUNNY   76  53  44 SW12G18   29.81F
$$

WIZ029-030-035-036-043>047-032000-
CENTRAL WISCONSIN

CITY           SKY/WX    TMP DP  RH WIND       PRES   REMARKS
WAUSAU         MOSUNNY   77  51  40 S16       29.79F
MOSINEE        NOT AVBL
MARSHFIELD     MOSUNNY   78  51  38 SW10G18   29.81F
STEVENS POINT  MOSUNNY   77  50  38 S12       29.82S
WAUPACA        MOSUNNY   80  49  33 S14       29.83F HX  80
WAUTOMA        NOT AVBL
WISC RAPIDS    MOSUNNY   78  50  37 SW14      29.83S
CAMP DOUGLAS   NOT AVBL
$$

WIZ011>013-019>022-031-037>040-048>050-032000-
NORTHEAST WISCONSIN

CITY           SKY/WX    TMP DP  RH WIND       PRES   REMARKS
ANTIGO         MOSUNNY   75  52  44 SW13G18   29.83F
SHAWANO        MOSUNNY   80  50  34 SW8G17    29.83S HX  80
OCONTO         MOSUNNY   79  52  39 S10       29.81F
STURGEON BAY   SUNNY     70  46  43 S22G28    29.87F
GREEN BAY      MOSUNNY   79  52  38 SW15      29.83F
MANITOWOC      NOT AVBL
APPLETON       PTSUNNY   75  48  38 SW21G28   29.85F
CLINTONVILLE   MOSUNNY   79  48  34 S13G20    29.82F
OSHKOSH        PTSUNNY   75  53  46 SW13G24   29.85F
$$

WIZ032>034-041-042-053>061-032000-
SOUTHWEST WISCONSIN

CITY           SKY/WX    TMP DP  RH WIND       PRES   REMARKS
LA CROSSE      SUNNY     81  32  17 S9G28     29.80F
SPARTA         MOSUNNY   77  49  37 SW5       29.82F
VIROQUA        SUNNY     76  52  42 S16       29.84S
BOSCOBEL       PTSUNNY   79  54  41 S12G20    29.85F
PRAIRIE DU CHI MOSUNNY   77  51  39 S7        29.83F
PLATTEVILLE    PTSUNNY   71  56  58 S17G28    29.90S
$$

WIZ056-057-062-063-064-067-068-032000-
SOUTH CENTRAL WISCONSIN

CITY           SKY/WX    TMP DP  RH WIND       PRES   REMARKS
REEDSBURG      CLOUDY    73  55  53 SW16      29.85S
BARABOO/DELLS  NOT AVBL
LONE ROCK      NOT AVBL
MINERAL POINT  CLOUDY    73  52  46 SW18G24   29.90R
MADISON        CLOUDY    72  54  53 SW13G25   29.88S
MIDDLETON      PTSUNNY   75  51  43 SW17G24   29.89R
WATERTOWN      CLOUDY    75  55  50 SW18G25   29.89S
MONROE         CLOUDY    64  57  77 S14G21    29.92F
JANESVILLE     LGT RAIN  73  54  49 SW17G23   29.93R
$$

WIZ051-052-058>065-066-070>072-032000-
SOUTHEAST WISCONSIN

CITY           SKY/WX    TMP DP  RH WIND       PRES   REMARKS
MILWAUKEE      PTSUNNY   77  51  40 SW20G26   29.90F
WAUKESHA       CLOUDY    73  52  46 S13G23    29.91F
MILWAUKEE/TIMM CLOUDY    75  48  38 S14G23    29.89F
RACINE         PTSUNNY   80  51  36 SW23G31   29.92F HX  80
BURLINGTON     MOSUNNY   75  50  42 SW16G22   29.92R
KENOSHA        MOSUNNY   78  52  40 SW18G29   29.92S
FOND DU LAC    PTSUNNY   77  52  41 S21G29    29.86F
SHEBOYGAN      PTSUNNY   78  53  41 S17G29    29.87F
WEST BEND      PTSUNNY   75  48  38 S12G20    29.88F
JUNEAU         PTSUNNY   76  54  46 S23       29.89F
$$

LSZ147-162-032000-
LAKE SUPERIOR

STATION/POSITION TIME  TEMP    WIND        PRES    WAVE
                       AIR SEA DIR/SP/G            HT/PER
                 (UTC) (F)     (DEG/KT/KT) (MB)    (FT/S)
W MID LAKE BUOY  1750   46 36  210/ 10/ 12 1007.9R   1
DEVILS ISLAND    1800   64     230/ 14/ 16 1007.3R
PORT WING        1800   71     250/  8/ 12 1007.5F
SAXON HARBOR     1840   57        CALM     1007.8S
$$

LMZ867-665-643>646-032000-
LAKE MICHIGAN

STATION/POSITION TIME  TEMP    WIND        PRES    WAVE
                       AIR SEA DIR/SP/G            HT/PER
                 (UTC) (F)     (DEG/KT/KT) (MB)    (FT/S)
CHAMBERS ISLAND  1800   69     170/  9/ 15 1010.5F
NORTHPORT PIER   1800   56     140/ 10/ 15 1011.2F
SISTER BAY       1817   71     190/ 16/ 18   N/A
KEWAUNEE LAKESHO 1818          180/ 15/ 17 1011.2F
SHEBOYGAN LAKESH 1800   47     160/ 21/ 22 1012.5F
PORT WASHINGTON  1840   53     170/  8/ 11 1012.9F
ATWATER BUOY     1800   49     160/  8/ 10 1014.3F
MILWAUKEE LAKESH 1800   55     130/  9/ 13   N/A
KENOSHA   LAKESH 1800   60     170/ 13/ 20 1013.2F
$$

TC  - TEMPERATURE IN CELSIUS
VSB - VISIBILITY IN STATUTE MILES
WCI - WIND CHILL INDEX
HX  - HEAT INDEX



USA.gov is the U.S. government's official web portal to all federal, state and local government web resources and services.